TimeEDT,TemperatureF,Dew PointF,Humidity,Sea Level PressureIn,VisibilityMPH,Wind Direction,Wind SpeedMPH,Gust SpeedMPH,PrecipitationIn,Events,Conditions,WindDirDegrees,DateUTC
12:56 AM,78.1,71.1,79,29.95,10.0,WSW,11.5,-,N/A,,Overcast,240,2013-08-28 04:56:00
1:56 AM,77.0,71.1,82,29.94,10.0,WSW,10.4,-,N/A,,Mostly Cloudy,250,2013-08-28 05:56:00
2:56 AM,75.9,71.1,85,29.94,10.0,WSW,10.4,-,N/A,,Mostly Cloudy,240,2013-08-28 06:56:00
3:56 AM,75.9,71.1,85,29.94,9.0,SW,10.4,-,N/A,,Mostly Cloudy,230,2013-08-28 07:56:00
4:56 AM,75.0,71.1,87,29.94,9.0,WSW,11.5,-,N/A,,Overcast,240,2013-08-28 08:56:00
5:56 AM,75.0,71.1,87,29.92,9.0,WSW,13.8,-,N/A,,Mostly Cloudy,250,2013-08-28 09:56:00
6:56 AM,75.0,71.1,87,29.91,8.0,WSW,15.0,-,N/A,,Mostly Cloudy,250,2013-08-28 10:56:00
7:56 AM,75.9,70.0,82,29.91,9.0,WSW,13.8,-,N/A,,Mostly Cloudy,250,2013-08-28 11:56:00
8:56 AM,80.1,69.1,69,29.90,10.0,West,11.5,-,N/A,,Mostly Cloudy,260,2013-08-28 12:56:00
9:56 AM,82.9,69.1,63,29.91,10.0,West,12.7,23.0,N/A,,Scattered Clouds,280,2013-08-28 13:56:00
10:56 AM,86.0,70.0,59,29.92,10.0,WNW,16.1,-,N/A,,Partly Cloudy,300,2013-08-28 14:56:00
11:56 AM,87.1,70.0,57,29.91,10.0,WNW,16.1,-,N/A,,Partly Cloudy,290,2013-08-28 15:56:00
12:56 PM,89.1,71.1,55,29.91,10.0,West,15.0,-,N/A,,Mostly Cloudy,270,2013-08-28 16:56:00
1:56 PM,90.0,71.1,54,29.91,10.0,WNW,13.8,21.9,N/A,,Mostly Cloudy,290,2013-08-28 17:56:00
2:56 PM,90.0,72.0,55,29.90,10.0,NW,13.8,-,N/A,,Mostly Cloudy,310,2013-08-28 18:56:00
3:56 PM,86.0,73.0,65,29.90,9.0,NNW,12.7,-,0.00,Rain,Light Rain,330,2013-08-28 19:56:00
4:56 PM,89.1,73.0,59,29.90,10.0,NW,13.8,-,0.00,,Mostly Cloudy,320,2013-08-28 20:56:00
5:56 PM,88.0,73.0,61,29.90,10.0,NNW,11.5,-,0.00,,Scattered Clouds,330,2013-08-28 21:56:00
6:56 PM,86.0,73.0,65,29.90,10.0,NW,10.4,-,N/A,,Partly Cloudy,320,2013-08-28 22:56:00
7:56 PM,84.0,73.9,72,29.91,9.0,NW,8.1,-,N/A,,Scattered Clouds,320,2013-08-28 23:56:00
8:56 PM,79.0,72.0,79,29.94,10.0,NNW,9.2,-,N/A,,Scattered Clouds,340,2013-08-29 00:56:00
9:56 PM,79.0,73.0,82,29.96,9.0,NE,10.4,-,N/A,,Mostly Cloudy,40,2013-08-29 01:56:00
10:56 PM,75.9,72.0,87,29.98,6.0,NE,6.9,-,N/A,,Clear,40,2013-08-29 02:56:00
11:56 PM,73.9,71.1,91,29.99,5.0,NNE,3.5,-,N/A,,Partly Cloudy,30,2013-08-29 03:56:00